Location: �clusier
(49.9361°N, 2.7869°E)
Time: 08:30:57
(UTC+00:00)

ATLAS 3B R/B - Pass Details

Date: 16 June 2021
Orbit: 1003 x 1191 km, 63.8° (Epoch: 21 July)

Event Time Altitude Azimuth Distance (km) Brightness Sun altitude
Rises 23:06:31 0° 231° (SW) 3,728 5.3 -16.1°
Reaches altitude 10° 23:09:05 10° 233° (SW) 2,791 4.6 -16.1°
Maximum altitude 23:15:37 68° 317° (NW) 1,110 2.9 -16.3°
Drops below altitude 10° 23:22:27 10° 41° (NE) 2,907 5.6 -16.4°
Sets 23:25:11 0° 44° (NE) 3,893 6.3 -16.5°
